• In Hungary
  • List of Countries
  • For 7 days
  • Water Temperature
  • Satellite Maps
  • Weather Map
  • News
  • Weather Widgets
  • user-avatar
    Login

    Hourly Weather Maradi

    Today, 24 September, Monday

    Time Temperature Precipitation Wind Pressure Humidity
    00:00 +33°C° 0 mm 3 mps 728 mmHg 49%
    01:00 +33°C° 0 mm 3 mps 728 mmHg 52%
    02:00 +31°C° 0 mm 3 mps 727 mmHg 56%
    03:00 +30°C° 0 mm 3 mps 727 mmHg 59%
    04:00 +30°C° 0 mm 3 mps 727 mmHg 62%
    05:00 +29°C° 0 mm 3 mps 728 mmHg 65%
    06:00 +29°C° 0 mm 4 mps 728 mmHg 67%
    07:00 +32°C° 0 mm 4 mps 728 mmHg 61%
    08:00 +33°C° 0 mm 4 mps 729 mmHg 55%
    09:00 +35°C° 0 mm 4 mps 729 mmHg 49%
    10:00 +37°C° 0 mm 3 mps 728 mmHg 42%
    11:00 +38°C° 0 mm 2 mps 728 mmHg 35%
    12:00 +37°C° 0 mm 0 mps 728 mmHg 27%
    13:00 +41°C° 0 mm 2 mps 727 mmHg 25%
    14:00 +42°C° 0 mm 3 mps 726 mmHg 22%
    15:00 +43°C° 0 mm 4 mps 726 mmHg 20%
    16:00 +40°C° 0 mm 3 mps 726 mmHg 21%
    17:00 +39°C° 0 mm 2 mps 726 mmHg 23%
    18:00 +37°C° 0 mm 1 mps 726 mmHg 24%
    19:00 +36°C° 0 mm 1 mps 726 mmHg 26%
    20:00 +36°C° 0 mm 1 mps 726 mmHg 27%
    21:00 +36°C° 0 mm 2 mps 726 mmHg 28%
    22:00 +35°C° 0 mm 1 mps 726 mmHg 29%
    23:00 +34°C° 0 mm 1 mps 726 mmHg 30%

    Tomorrow, 25 September, Tuesday

    Time Temperature Precipitation Wind Pressure Humidity
    00:00 +34°C° 0 mm 1 mps 727 mmHg 32%
    01:00 +34°C° 0 mm 2 mps 726 mmHg 34%
    02:00 +34°C° 0 mm 2 mps 726 mmHg 36%
    03:00 +34°C° 0 mm 3 mps 726 mmHg 39%
    04:00 +33°C° 0 mm 4 mps 727 mmHg 47%
    05:00 +32°C° 0 mm 4 mps 727 mmHg 55%
    06:00 +30°C° 0 mm 4 mps 727 mmHg 63%
    07:00 +32°C° 0 mm 5 mps 728 mmHg 59%
    08:00 +34°C° 0 mm 5 mps 728 mmHg 54%
    09:00 +35°C° 0 mm 5 mps 729 mmHg 50%
    10:00 +37°C° 0 mm 4 mps 728 mmHg 44%
    11:00 +38°C° 0 mm 3 mps 728 mmHg 37%
    12:00 +40°C° 0 mm 2 mps 728 mmHg 31%
    13:00 +40°C° 0 mm 2 mps 727 mmHg 27%
    14:00 +41°C° 0 mm 2 mps 726 mmHg 24%
    15:00 +43°C° 0 mm 3 mps 725 mmHg 20%
    16:00 +41°C° 0 mm 2 mps 725 mmHg 22%
    17:00 +40°C° 0 mm 2 mps 725 mmHg 23%
    18:00 +39°C° 0 mm 2 mps 725 mmHg 25%
    19:00 +38°C° 0 mm 3 mps 726 mmHg 28%
    20:00 +37°C° 0 mm 4 mps 727 mmHg 31%
    21:00 +37°C° 0 mm 4 mps 727 mmHg 35%
    22:00 +35°C° 0 mm 5 mps 727 mmHg 42%
    23:00 +34°C° 0 mm 5 mps 727 mmHg 48%

    Day after tomorrow, 26 September, Wednesday

    Time Temperature Precipitation Wind Pressure Humidity
    00:00 +33°C° 0 mm 5 mps 727 mmHg 55%
    01:00 +33°C° 0 mm 4 mps 726 mmHg 56%
    02:00 +32°C° 0 mm 4 mps 726 mmHg 56%
    03:00 +31°C° 0 mm 3 mps 726 mmHg 56%
    04:00 +31°C° 0 mm 3 mps 726 mmHg 57%
    05:00 +30°C° 0 mm 2 mps 727 mmHg 58%
    06:00 +30°C° 0 mm 2 mps 727 mmHg 60%
    07:00 +31°C° 0 mm 3 mps 728 mmHg 55%
    08:00 +34°C° 0 mm 4 mps 729 mmHg 50%
    09:00 +35°C° 0 mm 5 mps 729 mmHg 45%
    10:00 +36°C° 0 mm 4 mps 729 mmHg 42%
    11:00 +38°C° 0 mm 4 mps 728 mmHg 38%
    12:00 +40°C° 0 mm 4 mps 727 mmHg 35%
    13:00 +39°C° 0 mm 3 mps 727 mmHg 32%
    14:00 +40°C° 0 mm 2 mps 726 mmHg 30%
    15:00 +40°C° 0 mm 1 mps 725 mmHg 28%
    16:00 +39°C° 0 mm 1 mps 726 mmHg 29%
    17:00 +39°C° 0 mm 2 mps 726 mmHg 30%
    18:00 +38°C° 0 mm 2 mps 726 mmHg 32%
    19:00 +37°C° 0.1 mm 2 mps 726 mmHg 35%
    20:00 +37°C° 0.1 mm 3 mps 727 mmHg 38%
    21:00 +36°C° 0.1 mm 3 mps 727 mmHg 41%
    22:00 +35°C° 0 mm 3 mps 727 mmHg 45%
    23:00 +34°C° 0 mm 4 mps 727 mmHg 50%

    27 September, Thursday

    Time Temperature Precipitation Wind Pressure Humidity
    00:00 +33°C° 0 mm 4 mps 726 mmHg 54%
    01:00 +32°C° 0 mm 4 mps 726 mmHg 58%
    02:00 +30°C° 0 mm 4 mps 726 mmHg 62%
    03:00 +30°C° 0 mm 3 mps 725 mmHg 66%
    04:00 +29°C° 0 mm 3 mps 726 mmHg 67%
    05:00 +29°C° 0 mm 3 mps 726 mmHg 69%
    06:00 +29°C° 0 mm 3 mps 727 mmHg 71%
    07:00 +32°C° 0 mm 4 mps 727 mmHg 63%
    08:00 +33°C° 0 mm 5 mps 728 mmHg 56%
    09:00 +35°C° 0 mm 6 mps 729 mmHg 49%
    10:00 +36°C° 0 mm 6 mps 728 mmHg 45%
    11:00 +38°C° 0 mm 6 mps 727 mmHg 42%
    12:00 +39°C° 0 mm 6 mps 727 mmHg 39%
    13:00 +40°C° 0 mm 5 mps 726 mmHg 36%
    14:00 +40°C° 0 mm 4 mps 726 mmHg 34%
    15:00 +40°C° 0 mm 3 mps 725 mmHg 31%
    16:00 +39°C° 0 mm 3 mps 725 mmHg 33%
    17:00 +38°C° 0 mm 3 mps 725 mmHg 34%
    18:00 +37°C° 0 mm 3 mps 726 mmHg 35%
    19:00 +37°C° 0 mm 4 mps 726 mmHg 39%
    20:00 +36°C° 0 mm 5 mps 726 mmHg 42%
    21:00 +35°C° 0 mm 6 mps 727 mmHg 46%
    22:00 +34°C° 0.2 mm 7 mps 726 mmHg 52%
    23:00 +33°C° 0.2 mm 7 mps 726 mmHg 58%

    28 September, Friday

    Time Temperature Precipitation Wind Pressure Humidity
    00:00 +31°C° 0.2 mm 8 mps 726 mmHg 64%
    01:00 +30°C° 0 mm 7 mps 726 mmHg 65%
    02:00 +30°C° 0 mm 7 mps 726 mmHg 67%
    03:00 +29°C° 0 mm 6 mps 725 mmHg 68%
    04:00 +29°C° 0 mm 6 mps 726 mmHg 68%
    05:00 +29°C° 0 mm 5 mps 727 mmHg 69%
    06:00 +29°C° 0 mm 5 mps 728 mmHg 69%
    07:00 +30°C° 0 mm 5 mps 728 mmHg 65%
    08:00 +32°C° 0 mm 6 mps 729 mmHg 60%
    09:00 +33°C° 0 mm 6 mps 729 mmHg 56%
    10:00 +35°C° 0 mm 6 mps 729 mmHg 51%
    11:00 +36°C° 0 mm 6 mps 728 mmHg 47%
    12:00 +38°C° 0 mm 6 mps 727 mmHg 42%
    13:00 +39°C° 0 mm 6 mps 727 mmHg 41%
    14:00 +39°C° 0 mm 5 mps 726 mmHg 39%
    15:00 +38°C° 0 mm 4 mps 726 mmHg 38%
    16:00 +38°C° 0 mm 4 mps 726 mmHg 40%
    17:00 +37°C° 0 mm 4 mps 726 mmHg 43%
    18:00 +36°C° 0 mm 3 mps 726 mmHg 45%
    19:00 +35°C° 0 mm 4 mps 727 mmHg 48%
    20:00 +34°C° 0 mm 5 mps 727 mmHg 52%
    21:00 +34°C° 0 mm 5 mps 727 mmHg 55%
    22:00 +33°C° 0.2 mm 5 mps 727 mmHg 57%
    23:00 +33°C° 0.2 mm 5 mps 727 mmHg 58%

    29 September, Saturday

    Time Temperature Precipitation Wind Pressure Humidity
    00:00 +32°C° 0.2 mm 5 mps 727 mmHg 59%
    01:00 +32°C° 1.8 mm 5 mps 727 mmHg 62%
    02:00 +30°C° 1.8 mm 4 mps 727 mmHg 64%
    03:00 +30°C° 1.8 mm 4 mps 727 mmHg 67%
    04:00 +30°C° 0.2 mm 4 mps 727 mmHg 68%
    05:00 +30°C° 0.2 mm 4 mps 727 mmHg 69%
    06:00 +29°C° 0.2 mm 4 mps 728 mmHg 70%
    07:00 +30°C° 0 mm 4 mps 728 mmHg 67%
    08:00 +32°C° 0 mm 5 mps 729 mmHg 63%
    09:00 +33°C° 0 mm 6 mps 729 mmHg 60%
    10:00 +34°C° 0 mm 6 mps 729 mmHg 55%
    11:00 +35°C° 0 mm 5 mps 728 mmHg 49%
    12:00 +37°C° 0 mm 5 mps 727 mmHg 43%
    13:00 +37°C° 0 mm 5 mps 727 mmHg 41%
    14:00 +39°C° 0 mm 5 mps 726 mmHg 38%
    15:00 +40°C° 0 mm 5 mps 726 mmHg 36%
    16:00 +38°C° 0 mm 4 mps 726 mmHg 37%
    17:00 +37°C° 0 mm 3 mps 726 mmHg 39%
    18:00 +37°C° 0 mm 2 mps 727 mmHg 40%
    19:00 +35°C° 1.6 mm 3 mps 727 mmHg 46%
    20:00 +34°C° 1.6 mm 4 mps 727 mmHg 51%
    21:00 +33°C° 1.6 mm 5 mps 727 mmHg 56%
    22:00 +33°C° 1 mm 4 mps 727 mmHg 58%
    23:00 +32°C° 1 mm 4 mps 727 mmHg 61%
    Show more